Year,Month,Day,Hour,Minute,Value (Times are PST for temperature in C)
2013,04,25,00,00,9.20
2013,04,25,00,01,9.10
2013,04,25,00,02,9.10
2013,04,25,00,03,9.00
2013,04,25,00,04,9.00
2013,04,25,00,05,8.90
2013,04,25,00,06,8.80
2013,04,25,00,07,8.80
2013,04,25,00,08,8.70
2013,04,25,00,09,8.70
2013,04,25,00,10,8.70
2013,04,25,00,11,8.60
2013,04,25,00,12,8.60
2013,04,25,00,13,8.60
2013,04,25,00,14,8.60
2013,04,25,00,15,8.60
2013,04,25,00,16,8.60
2013,04,25,00,17,8.60
2013,04,25,00,18,8.60
2013,04,25,00,19,8.60
2013,04,25,00,20,8.70
2013,04,25,00,21,8.70
2013,04,25,00,22,8.70
2013,04,25,00,23,8.80
2013,04,25,00,24,8.80
2013,04,25,00,25,8.80
2013,04,25,00,26,8.90
2013,04,25,00,27,8.90
2013,04,25,00,28,9.00
2013,04,25,00,29,9.00
2013,04,25,00,30,9.10
2013,04,25,00,31,9.10
2013,04,25,00,32,9.10
2013,04,25,00,33,9.20
2013,04,25,00,34,9.20
2013,04,25,00,35,9.20
2013,04,25,00,36,9.20
2013,04,25,00,37,9.20
2013,04,25,00,38,9.20
2013,04,25,00,39,9.20
2013,04,25,00,40,9.20
2013,04,25,00,41,9.10
2013,04,25,00,42,9.10
2013,04,25,00,43,9.00
2013,04,25,00,44,8.90
2013,04,25,00,45,8.80
2013,04,25,00,46,8.80
2013,04,25,00,47,8.70
2013,04,25,00,48,8.60
2013,04,25,00,49,8.50
2013,04,25,00,50,8.50
2013,04,25,00,51,8.40
2013,04,25,00,52,8.40
2013,04,25,00,53,8.30
2013,04,25,00,54,8.30
2013,04,25,00,55,8.20
2013,04,25,00,56,8.20
2013,04,25,00,57,8.20
2013,04,25,00,58,8.10
2013,04,25,00,59,8.20
2013,04,25,01,00,8.30
2013,04,25,01,01,8.40
2013,04,25,01,02,8.60
2013,04,25,01,03,8.80
2013,04,25,01,04,9.10
2013,04,25,01,05,9.30
2013,04,25,01,06,9.60
2013,04,25,01,07,9.80
2013,04,25,01,08,10.00
2013,04,25,01,09,10.20
2013,04,25,01,10,10.40
2013,04,25,01,11,10.50
2013,04,25,01,12,10.60
2013,04,25,01,13,10.70
2013,04,25,01,14,10.80
2013,04,25,01,15,10.80
2013,04,25,01,16,10.80
2013,04,25,01,17,10.80
2013,04,25,01,18,10.90
2013,04,25,01,19,11.10
2013,04,25,01,20,11.10
2013,04,25,01,21,11.20
2013,04,25,01,22,11.20
2013,04,25,01,23,11.20
2013,04,25,01,24,11.20
2013,04,25,01,25,11.20
2013,04,25,01,26,11.20
2013,04,25,01,27,11.20
2013,04,25,01,28,11.20
2013,04,25,01,29,11.20
2013,04,25,01,30,11.20
2013,04,25,01,31,11.20
2013,04,25,01,32,11.30
2013,04,25,01,33,11.30
2013,04,25,01,34,11.30
2013,04,25,01,35,11.30
2013,04,25,01,36,11.30
2013,04,25,01,37,11.30
2013,04,25,01,38,11.30
2013,04,25,01,39,11.30
2013,04,25,01,40,11.20
2013,04,25,01,41,11.20
2013,04,25,01,42,11.10
2013,04,25,01,43,11.00
2013,04,25,01,44,10.90
2013,04,25,01,45,10.70
2013,04,25,01,46,10.60
2013,04,25,01,47,10.40
2013,04,25,01,48,10.20
2013,04,25,01,49,10.00
2013,04,25,01,50,9.90
2013,04,25,01,51,9.80
2013,04,25,01,52,9.80
2013,04,25,01,53,9.70
2013,04,25,01,54,9.70
2013,04,25,01,55,9.70
2013,04,25,01,56,9.60
2013,04,25,01,57,9.60
2013,04,25,01,58,9.60
2013,04,25,01,59,9.60
2013,04,25,02,00,9.60
2013,04,25,02,01,9.60
2013,04,25,02,02,9.60
2013,04,25,02,03,9.60
2013,04,25,02,04,9.60
2013,04,25,02,05,9.60
2013,04,25,02,06,9.70
2013,04,25,02,07,9.80
2013,04,25,02,08,9.80
2013,04,25,02,09,9.90
2013,04,25,02,10,10.00
2013,04,25,02,11,10.10
2013,04,25,02,12,10.20
2013,04,25,02,13,10.20
2013,04,25,02,14,10.30
2013,04,25,02,15,10.30
2013,04,25,02,16,10.30
2013,04,25,02,17,10.30
2013,04,25,02,18,10.30
2013,04,25,02,19,10.30
2013,04,25,02,20,10.20
2013,04,25,02,21,10.10
2013,04,25,02,22,10.00
2013,04,25,02,23,9.90
2013,04,25,02,24,9.80
2013,04,25,02,25,9.70
2013,04,25,02,26,9.60
2013,04,25,02,27,9.40
2013,04,25,02,28,9.30
2013,04,25,02,29,9.20
2013,04,25,02,30,9.00
2013,04,25,02,31,8.90
2013,04,25,02,32,8.80
2013,04,25,02,33,8.70
2013,04,25,02,34,8.60
2013,04,25,02,35,8.60
2013,04,25,02,36,8.50
2013,04,25,02,37,8.50
2013,04,25,02,38,8.50
2013,04,25,02,39,8.50
2013,04,25,02,40,8.50
2013,04,25,02,41,8.50
2013,04,25,02,42,8.50
2013,04,25,02,43,8.50
2013,04,25,02,44,8.40
2013,04,25,02,45,8.40
2013,04,25,02,46,8.30
2013,04,25,02,47,8.20
2013,04,25,02,48,8.20
2013,04,25,02,49,8.20
2013,04,25,02,50,8.10
2013,04,25,02,51,8.10
2013,04,25,02,52,8.10
2013,04,25,02,53,8.20
2013,04,25,02,54,8.20
2013,04,25,02,55,8.30
2013,04,25,02,56,8.40
2013,04,25,02,57,8.40
2013,04,25,02,58,8.50
2013,04,25,02,59,8.50
2013,04,25,03,00,8.50
2013,04,25,03,01,8.50
2013,04,25,03,02,8.50
2013,04,25,03,03,8.50
2013,04,25,03,04,8.50
2013,04,25,03,05,8.50
2013,04,25,03,06,8.50
2013,04,25,03,07,8.40
2013,04,25,03,08,8.40
2013,04,25,03,09,8.40
2013,04,25,03,10,8.40
2013,04,25,03,11,8.30
2013,04,25,03,12,8.30
2013,04,25,03,13,8.30
2013,04,25,03,14,8.20
2013,04,25,03,15,8.20
2013,04,25,03,16,8.20
2013,04,25,03,17,8.10
2013,04,25,03,18,8.00
2013,04,25,03,19,8.00
2013,04,25,03,20,7.90
2013,04,25,03,21,7.90
2013,04,25,03,22,7.80
2013,04,25,03,23,7.80
2013,04,25,03,24,7.80
2013,04,25,03,25,7.80
2013,04,25,03,26,7.80
2013,04,25,03,27,7.80
2013,04,25,03,28,7.80
2013,04,25,03,29,7.80
2013,04,25,03,30,7.80
2013,04,25,03,31,7.80
2013,04,25,03,32,7.90
2013,04,25,03,33,7.90
2013,04,25,03,34,8.00
2013,04,25,03,35,8.00
2013,04,25,03,36,8.00
2013,04,25,03,37,8.00
2013,04,25,03,38,8.00
2013,04,25,03,39,8.00
2013,04,25,03,40,8.00
2013,04,25,03,41,8.00
2013,04,25,03,42,8.10
2013,04,25,03,43,8.10
2013,04,25,03,44,8.20
2013,04,25,03,45,8.40
2013,04,25,03,46,8.50
2013,04,25,03,47,8.60
2013,04,25,03,48,8.60
2013,04,25,03,49,8.50
2013,04,25,03,50,8.40
2013,04,25,03,51,8.30
2013,04,25,03,52,8.20
2013,04,25,03,53,8.10
2013,04,25,03,54,8.00
2013,04,25,03,55,7.90
2013,04,25,03,56,7.80
2013,04,25,03,57,7.80
2013,04,25,03,58,7.80
2013,04,25,03,59,7.80
2013,04,25,04,00,7.80
2013,04,25,04,01,7.80
2013,04,25,04,02,7.80
2013,04,25,04,03,7.80
2013,04,25,04,04,7.80
2013,04,25,04,05,7.80
2013,04,25,04,06,7.90
2013,04,25,04,07,7.90
2013,04,25,04,08,7.90
2013,04,25,04,09,8.00
2013,04,25,04,10,8.00
2013,04,25,04,11,8.00
2013,04,25,04,12,7.90
2013,04,25,04,13,7.90
2013,04,25,04,14,7.90
2013,04,25,04,15,7.90
2013,04,25,04,16,7.80
2013,04,25,04,17,7.80
2013,04,25,04,18,7.80
2013,04,25,04,19,7.70
2013,04,25,04,20,7.60
2013,04,25,04,21,7.60
2013,04,25,04,22,7.50
2013,04,25,04,23,7.40
2013,04,25,04,24,7.40
2013,04,25,04,25,7.40
2013,04,25,04,26,7.40
2013,04,25,04,27,7.40
2013,04,25,04,28,7.50
2013,04,25,04,29,7.50
2013,04,25,04,30,7.50
2013,04,25,04,31,7.50
2013,04,25,04,32,7.60
2013,04,25,04,33,7.60
2013,04,25,04,34,7.50
2013,04,25,04,35,7.50
2013,04,25,04,36,7.50
2013,04,25,04,37,7.40
2013,04,25,04,38,7.40
2013,04,25,04,39,7.50
2013,04,25,04,40,7.60
2013,04,25,04,41,7.60
2013,04,25,04,42,7.70
2013,04,25,04,43,7.70
2013,04,25,04,44,7.70
2013,04,25,04,45,7.70
2013,04,25,04,46,7.60
2013,04,25,04,47,7.60
2013,04,25,04,48,7.60
2013,04,25,04,49,7.70
2013,04,25,04,50,7.80
2013,04,25,04,51,7.90
2013,04,25,04,52,8.00
2013,04,25,04,53,8.20
2013,04,25,04,54,8.30
2013,04,25,04,55,8.50
2013,04,25,04,56,8.60
2013,04,25,04,57,8.80
2013,04,25,04,58,8.90
2013,04,25,04,59,9.10
2013,04,25,05,00,9.20
2013,04,25,05,01,9.30
2013,04,25,05,02,9.40
2013,04,25,05,03,9.40
2013,04,25,05,04,9.40
2013,04,25,05,05,9.30
2013,04,25,05,06,9.20
2013,04,25,05,07,9.20
2013,04,25,05,08,9.10
2013,04,25,05,09,9.10
2013,04,25,05,10,9.10
2013,04,25,05,11,9.10
2013,04,25,05,12,9.10
2013,04,25,05,13,9.10
2013,04,25,05,14,9.20
2013,04,25,05,15,9.10
2013,04,25,05,16,9.10
2013,04,25,05,17,9.10
2013,04,25,05,18,9.10
2013,04,25,05,19,9.10
2013,04,25,05,20,9.00
2013,04,25,05,21,8.90
2013,04,25,05,22,8.80
2013,04,25,05,23,8.70
2013,04,25,05,24,8.60
2013,04,25,05,25,8.60
2013,04,25,05,26,8.50
2013,04,25,05,27,8.50
2013,04,25,05,28,8.40
2013,04,25,05,29,8.40
2013,04,25,05,30,8.40
2013,04,25,05,31,8.40
2013,04,25,05,32,8.40
2013,04,25,05,33,8.40
2013,04,25,05,34,8.40
2013,04,25,05,35,8.50
2013,04,25,05,36,8.50
2013,04,25,05,37,8.50
2013,04,25,05,38,8.50
2013,04,25,05,39,8.50
2013,04,25,05,40,8.50
2013,04,25,05,41,8.50
2013,04,25,05,42,8.50
2013,04,25,05,43,8.60
2013,04,25,05,44,8.60
2013,04,25,05,45,8.60
2013,04,25,05,46,8.60
2013,04,25,05,47,8.50
2013,04,25,05,48,8.50
2013,04,25,05,49,8.40
2013,04,25,05,50,8.30
2013,04,25,05,51,8.30
2013,04,25,05,52,8.20
2013,04,25,05,53,8.20
2013,04,25,05,54,8.10
2013,04,25,05,55,8.00
2013,04,25,05,56,7.90
2013,04,25,05,57,7.80
2013,04,25,05,58,7.80
2013,04,25,05,59,7.80
2013,04,25,06,00,7.80
2013,04,25,06,01,7.90
2013,04,25,06,02,8.00
2013,04,25,06,03,8.00
2013,04,25,06,04,8.00
2013,04,25,06,05,7.90
2013,04,25,06,06,7.80
2013,04,25,06,07,7.80
2013,04,25,06,08,7.70
2013,04,25,06,09,7.60
2013,04,25,06,10,7.50
2013,04,25,06,11,7.50
2013,04,25,06,12,7.40
2013,04,25,06,13,7.40
2013,04,25,06,14,7.40
2013,04,25,06,15,7.40
2013,04,25,06,16,7.40
2013,04,25,06,17,7.50
2013,04,25,06,18,7.50
2013,04,25,06,19,7.50
2013,04,25,06,20,7.60
2013,04,25,06,21,7.60
2013,04,25,06,22,7.70
2013,04,25,06,23,7.70
2013,04,25,06,24,7.80
2013,04,25,06,25,7.80
2013,04,25,06,26,7.80
2013,04,25,06,27,7.80
2013,04,25,06,28,7.80
2013,04,25,06,29,7.80
2013,04,25,06,30,7.80
2013,04,25,06,31,7.70
2013,04,25,06,32,7.70
2013,04,25,06,33,7.70
2013,04,25,06,34,7.70
2013,04,25,06,35,7.70
2013,04,25,06,36,7.80
2013,04,25,06,37,7.80
2013,04,25,06,38,7.90
2013,04,25,06,39,8.00
2013,04,25,06,40,8.10
2013,04,25,06,41,8.10
2013,04,25,06,42,8.20
2013,04,25,06,43,8.20
2013,04,25,06,44,8.30
2013,04,25,06,45,8.30
2013,04,25,06,46,8.40
2013,04,25,06,47,8.40
2013,04,25,06,48,8.50
2013,04,25,06,49,8.50
2013,04,25,06,50,8.60
2013,04,25,06,51,8.60
2013,04,25,06,52,8.60
2013,04,25,06,53,8.60
2013,04,25,06,54,8.60
2013,04,25,06,55,8.50
2013,04,25,06,56,8.50
2013,04,25,06,57,8.50
2013,04,25,06,58,8.50
2013,04,25,06,59,8.50
2013,04,25,07,00,8.40
2013,04,25,07,01,8.40
2013,04,25,07,02,8.40
2013,04,25,07,03,8.50
2013,04,25,07,04,8.50
2013,04,25,07,05,8.50
2013,04,25,07,06,8.60
2013,04,25,07,07,8.60
2013,04,25,07,08,8.70
2013,04,25,07,09,8.70
2013,04,25,07,10,8.80
2013,04,25,07,11,8.90
2013,04,25,07,12,9.00
2013,04,25,07,13,9.10
2013,04,25,07,14,9.20
2013,04,25,07,15,9.30
2013,04,25,07,16,9.40
2013,04,25,07,17,9.50
2013,04,25,07,18,9.50
2013,04,25,07,19,9.60
2013,04,25,07,20,9.60
2013,04,25,07,21,9.70
2013,04,25,07,22,9.70
2013,04,25,07,23,9.80
2013,04,25,07,24,9.80
2013,04,25,07,25,9.90
2013,04,25,07,26,10.00
2013,04,25,07,27,10.00
2013,04,25,07,28,10.10
2013,04,25,07,29,10.10
2013,04,25,07,30,10.20
2013,04,25,07,31,10.20
2013,04,25,07,32,10.30
2013,04,25,07,33,10.30
2013,04,25,07,34,10.40
2013,04,25,07,35,10.40
2013,04,25,07,36,10.50
2013,04,25,07,37,10.50
2013,04,25,07,38,10.60
2013,04,25,07,39,10.60
2013,04,25,07,40,10.70
2013,04,25,07,41,10.70
2013,04,25,07,42,10.80
2013,04,25,07,43,10.80
2013,04,25,07,44,10.90
2013,04,25,07,45,10.90
2013,04,25,07,46,11.00
2013,04,25,07,47,11.10
2013,04,25,07,48,11.20
2013,04,25,07,49,11.20
2013,04,25,07,50,11.30
2013,04,25,07,51,11.40
2013,04,25,07,52,11.40
2013,04,25,07,53,11.50
2013,04,25,07,54,11.60
2013,04,25,07,55,11.60
2013,04,25,07,56,11.60
2013,04,25,07,57,11.60
2013,04,25,07,58,11.60
2013,04,25,07,59,11.60
2013,04,25,08,00,11.70
2013,04,25,08,01,11.60
2013,04,25,08,02,11.60
2013,04,25,08,03,11.60
2013,04,25,08,04,11.60
2013,04,25,08,05,11.60
2013,04,25,08,06,11.60
2013,04,25,08,07,11.60
2013,04,25,08,08,11.60
2013,04,25,08,09,11.70
2013,04,25,08,10,11.70
2013,04,25,08,11,11.70
2013,04,25,08,12,11.70
2013,04,25,08,13,11.80
2013,04,25,08,14,11.80
2013,04,25,08,15,11.90
2013,04,25,08,16,12.00
2013,04,25,08,17,12.00
2013,04,25,08,18,12.10
2013,04,25,08,19,12.10
2013,04,25,08,20,12.20
2013,04,25,08,21,12.20
2013,04,25,08,22,12.30
2013,04,25,08,23,12.30
2013,04,25,08,24,12.40
2013,04,25,08,25,12.40
2013,04,25,08,26,12.50
2013,04,25,08,27,12.60
2013,04,25,08,28,12.60
2013,04,25,08,29,12.70
2013,04,25,08,30,12.70
2013,04,25,08,31,12.80
2013,04,25,08,32,12.80
2013,04,25,08,33,12.90
2013,04,25,08,34,12.90
2013,04,25,08,35,12.90
2013,04,25,08,36,12.90
2013,04,25,08,37,12.90
2013,04,25,08,38,12.80
2013,04,25,08,39,12.80
2013,04,25,08,40,12.80
2013,04,25,08,41,12.80
2013,04,25,08,42,12.80
2013,04,25,08,43,12.80
2013,04,25,08,44,12.70
2013,04,25,08,45,12.70
2013,04,25,08,46,12.70
2013,04,25,08,47,12.70
2013,04,25,08,48,12.70
2013,04,25,08,49,12.70
2013,04,25,08,50,12.70
2013,04,25,08,51,12.70
2013,04,25,08,52,12.60
2013,04,25,08,53,12.60
2013,04,25,08,54,12.50
2013,04,25,08,55,12.50
2013,04,25,08,56,12.40
2013,04,25,08,57,12.40
2013,04,25,08,58,12.30
2013,04,25,08,59,12.30
2013,04,25,09,00,12.30
2013,04,25,09,01,12.30
2013,04,25,09,02,12.30
2013,04,25,09,03,12.30
2013,04,25,09,04,12.30
2013,04,25,09,05,12.30
2013,04,25,09,06,12.30
2013,04,25,09,07,12.30
2013,04,25,09,08,12.20
2013,04,25,09,09,12.20
2013,04,25,09,10,12.20
2013,04,25,09,11,12.20
2013,04,25,09,12,12.30
2013,04,25,09,13,12.30
2013,04,25,09,14,12.30
2013,04,25,09,15,12.40
2013,04,25,09,16,12.40
2013,04,25,09,17,12.50
2013,04,25,09,18,12.50
2013,04,25,09,19,12.60
2013,04,25,09,20,12.70
2013,04,25,09,21,12.70
2013,04,25,09,22,12.80
2013,04,25,09,23,12.80
2013,04,25,09,24,12.90
2013,04,25,09,25,13.00
2013,04,25,09,26,13.00
2013,04,25,09,27,13.10
2013,04,25,09,28,13.10
2013,04,25,09,29,13.20
2013,04,25,09,30,13.20
2013,04,25,09,31,13.20
2013,04,25,09,32,13.20
2013,04,25,09,33,13.20
2013,04,25,09,34,13.10
2013,04,25,09,35,13.10
2013,04,25,09,36,13.00
2013,04,25,09,37,12.90
2013,04,25,09,38,12.90
2013,04,25,09,39,12.90
2013,04,25,09,40,12.80
2013,04,25,09,41,12.90
2013,04,25,09,42,12.90
2013,04,25,09,43,13.00
2013,04,25,09,44,13.10
2013,04,25,09,45,13.20
2013,04,25,09,46,13.30
2013,04,25,09,47,13.30
2013,04,25,09,48,13.40
2013,04,25,09,49,13.40
2013,04,25,09,50,13.50
2013,04,25,09,51,13.60
2013,04,25,09,52,13.60
2013,04,25,09,53,13.60
2013,04,25,09,54,13.70
2013,04,25,09,55,13.70
2013,04,25,09,56,13.70
2013,04,25,09,57,13.70
2013,04,25,09,58,13.80
2013,04,25,09,59,13.80
2013,04,25,10,00,13.80
2013,04,25,10,01,13.80
2013,04,25,10,02,13.80
2013,04,25,10,03,13.80
2013,04,25,10,04,13.80
2013,04,25,10,05,13.90
2013,04,25,10,06,14.00
2013,04,25,10,07,14.10
2013,04,25,10,08,14.10
2013,04,25,10,09,14.20
2013,04,25,10,10,14.20
2013,04,25,10,11,14.20
2013,04,25,10,12,14.20
2013,04,25,10,13,14.20
2013,04,25,10,14,14.20
2013,04,25,10,15,14.20
2013,04,25,10,16,14.10
2013,04,25,10,17,14.10
2013,04,25,10,18,14.10
2013,04,25,10,19,14.10
2013,04,25,10,20,14.10
2013,04,25,10,21,14.10
2013,04,25,10,22,14.10
2013,04,25,10,23,14.20
2013,04,25,10,24,14.20
2013,04,25,10,25,14.20
2013,04,25,10,26,14.10
2013,04,25,10,27,14.10
2013,04,25,10,28,14.10
2013,04,25,10,29,14.10
2013,04,25,10,30,14.10
2013,04,25,10,31,14.00
2013,04,25,10,32,14.00
2013,04,25,10,33,14.00
2013,04,25,10,34,14.00
2013,04,25,10,35,14.00
2013,04,25,10,36,14.00
2013,04,25,10,37,14.00
2013,04,25,10,38,14.00
2013,04,25,10,39,14.00
2013,04,25,10,40,14.10
2013,04,25,10,41,14.20
2013,04,25,10,42,14.20
2013,04,25,10,43,14.30
2013,04,25,10,44,14.30
2013,04,25,10,45,14.30
2013,04,25,10,46,14.30
2013,04,25,10,47,14.30
2013,04,25,10,48,14.30
2013,04,25,10,49,14.40
2013,04,25,10,50,14.30
2013,04,25,10,51,14.30
2013,04,25,10,52,14.40
2013,04,25,10,53,14.30
2013,04,25,10,54,14.20
2013,04,25,10,55,14.20
2013,04,25,10,56,14.20
2013,04,25,10,57,14.20
2013,04,25,10,58,14.20
2013,04,25,10,59,14.20
2013,04,25,11,00,14.30
2013,04,25,11,01,14.20
2013,04,25,11,02,14.30
2013,04,25,11,03,14.30
2013,04,25,11,04,14.30
2013,04,25,11,05,14.40
2013,04,25,11,06,14.50
2013,04,25,11,07,14.60
2013,04,25,11,08,14.70
2013,04,25,11,09,14.60
2013,04,25,11,10,14.60
2013,04,25,11,11,14.60
2013,04,25,11,12,14.70
2013,04,25,11,13,14.70
2013,04,25,11,14,14.60
2013,04,25,11,15,14.60
2013,04,25,11,16,14.60
2013,04,25,11,17,14.60
2013,04,25,11,18,14.60
2013,04,25,11,19,14.60
2013,04,25,11,20,14.60
2013,04,25,11,21,14.60
2013,04,25,11,22,14.60
2013,04,25,11,23,14.60
2013,04,25,11,24,14.60
2013,04,25,11,25,14.70
2013,04,25,11,26,14.80
2013,04,25,11,27,14.80
2013,04,25,11,28,14.90
2013,04,25,11,29,15.00
2013,04,25,11,30,15.00
2013,04,25,11,31,15.00
2013,04,25,11,32,15.00
2013,04,25,11,33,15.00
2013,04,25,11,34,15.00
2013,04,25,11,35,15.00
2013,04,25,11,36,14.90
2013,04,25,11,37,14.80
2013,04,25,11,38,14.70
2013,04,25,11,39,14.70
2013,04,25,11,40,14.60
2013,04,25,11,41,14.60
2013,04,25,11,42,14.70
2013,04,25,11,43,14.70
2013,04,25,11,44,14.60
2013,04,25,11,45,14.60
2013,04,25,11,46,14.60
2013,04,25,11,47,14.50
2013,04,25,11,48,14.50
2013,04,25,11,49,14.50
2013,04,25,11,50,14.50
2013,04,25,11,51,14.50
2013,04,25,11,52,14.50
2013,04,25,11,53,14.60
2013,04,25,11,54,14.60
2013,04,25,11,55,14.60
2013,04,25,11,56,14.70
2013,04,25,11,57,14.70
2013,04,25,11,58,14.60
2013,04,25,11,59,14.50
2013,04,25,12,00,14.50
2013,04,25,12,01,14.50
2013,04,25,12,02,14.60
2013,04,25,12,03,14.60
2013,04,25,12,04,14.60
2013,04,25,12,05,14.50
2013,04,25,12,06,14.50
2013,04,25,12,07,14.60
2013,04,25,12,08,14.70
2013,04,25,12,09,14.60
2013,04,25,12,10,14.50
2013,04,25,12,11,14.50
2013,04,25,12,12,14.40
2013,04,25,12,13,14.50
2013,04,25,12,14,14.60
2013,04,25,12,15,14.60
2013,04,25,12,16,14.60
2013,04,25,12,17,14.60
2013,04,25,12,18,14.60
2013,04,25,12,19,14.70
2013,04,25,12,20,14.80
2013,04,25,12,21,14.80
2013,04,25,12,22,14.80
2013,04,25,12,23,14.90
2013,04,25,12,24,15.00
2013,04,25,12,25,15.00
2013,04,25,12,26,14.80
2013,04,25,12,27,14.70
2013,04,25,12,28,14.70
2013,04,25,12,29,14.70
2013,04,25,12,30,14.70
2013,04,25,12,31,14.80
2013,04,25,12,32,14.80
2013,04,25,12,33,14.80
2013,04,25,12,34,14.80
2013,04,25,12,35,14.80
2013,04,25,12,36,14.80
2013,04,25,12,37,14.80
2013,04,25,12,38,14.80
2013,04,25,12,39,14.80
2013,04,25,12,40,14.80
2013,04,25,12,41,14.70
2013,04,25,12,42,14.70
2013,04,25,12,43,14.70
2013,04,25,12,44,14.70
2013,04,25,12,45,14.70
2013,04,25,12,46,14.70
2013,04,25,12,47,14.70
2013,04,25,12,48,14.80
2013,04,25,12,49,14.90
2013,04,25,12,50,14.80
2013,04,25,12,51,14.80
2013,04,25,12,52,14.80
2013,04,25,12,53,14.80
2013,04,25,12,54,14.80
2013,04,25,12,55,14.70
2013,04,25,12,56,14.70
2013,04,25,12,57,14.70
2013,04,25,12,58,14.70
2013,04,25,12,59,14.70
2013,04,25,13,00,14.70
2013,04,25,13,01,14.70
2013,04,25,13,02,14.70
2013,04,25,13,03,14.70
2013,04,25,13,04,14.80
2013,04,25,13,05,14.90
2013,04,25,13,06,14.90
2013,04,25,13,07,14.80
2013,04,25,13,08,14.70
2013,04,25,13,09,14.70
2013,04,25,13,10,14.80
2013,04,25,13,11,14.70
2013,04,25,13,12,14.80
2013,04,25,13,13,15.00
2013,04,25,13,14,15.00
2013,04,25,13,15,15.10
2013,04,25,13,16,15.10
2013,04,25,13,17,15.00
2013,04,25,13,18,15.00
2013,04,25,13,19,15.00
2013,04,25,13,20,15.00
2013,04,25,13,21,15.00
2013,04,25,13,22,14.90
2013,04,25,13,23,14.80
2013,04,25,13,24,14.90
2013,04,25,13,25,14.90
2013,04,25,13,26,14.90
2013,04,25,13,27,15.00
2013,04,25,13,28,14.90
2013,04,25,13,29,14.80
2013,04,25,13,30,14.70
2013,04,25,13,31,14.80
2013,04,25,13,32,14.80
2013,04,25,13,33,15.00
2013,04,25,13,34,15.00
2013,04,25,13,35,15.00
2013,04,25,13,36,15.00
2013,04,25,13,37,15.00
2013,04,25,13,38,15.00
2013,04,25,13,39,15.00
2013,04,25,13,40,14.90
2013,04,25,13,41,14.80
2013,04,25,13,42,14.80
2013,04,25,13,43,14.90
2013,04,25,13,44,14.80
2013,04,25,13,45,14.80
2013,04,25,13,46,14.80
2013,04,25,13,47,14.70
2013,04,25,13,48,14.80
2013,04,25,13,49,14.80
2013,04,25,13,50,14.80
2013,04,25,13,51,14.90
2013,04,25,13,52,14.90
2013,04,25,13,53,14.90
2013,04,25,13,54,14.90
2013,04,25,13,55,14.90
2013,04,25,13,56,14.90
2013,04,25,13,57,15.10
2013,04,25,13,58,15.20
2013,04,25,13,59,15.20
2013,04,25,14,00,15.30
2013,04,25,14,01,15.40
2013,04,25,14,02,15.50
2013,04,25,14,03,15.60
2013,04,25,14,04,15.70
2013,04,25,14,05,15.70
2013,04,25,14,06,15.50
2013,04,25,14,07,15.40
2013,04,25,14,08,15.40
2013,04,25,14,09,15.40
2013,04,25,14,10,15.50
2013,04,25,14,11,15.50
2013,04,25,14,12,15.60
2013,04,25,14,13,15.50
2013,04,25,14,14,15.40
2013,04,25,14,15,15.30
2013,04,25,14,16,15.30
2013,04,25,14,17,15.30
2013,04,25,14,18,15.30
2013,04,25,14,19,15.40
2013,04,25,14,20,15.50
2013,04,25,14,21,15.60
2013,04,25,14,22,15.60
2013,04,25,14,23,15.60
2013,04,25,14,24,15.50
2013,04,25,14,25,15.50
2013,04,25,14,26,15.40
2013,04,25,14,27,15.30
2013,04,25,14,28,15.30
2013,04,25,14,29,15.40
2013,04,25,14,30,15.60
2013,04,25,14,31,15.70
2013,04,25,14,32,15.70
2013,04,25,14,33,15.70
2013,04,25,14,34,15.70
2013,04,25,14,35,15.80
2013,04,25,14,36,15.90
2013,04,25,14,37,15.90
2013,04,25,14,38,15.80
2013,04,25,14,39,15.70
2013,04,25,14,40,15.70
2013,04,25,14,41,15.70
2013,04,25,14,42,15.60
2013,04,25,14,43,15.60
2013,04,25,14,44,15.50
2013,04,25,14,45,15.40
2013,04,25,14,46,15.40
2013,04,25,14,47,15.40
2013,04,25,14,48,15.40
2013,04,25,14,49,15.50
2013,04,25,14,50,15.70
2013,04,25,14,51,15.90
2013,04,25,14,52,16.00
2013,04,25,14,53,16.00
2013,04,25,14,54,16.00
2013,04,25,14,55,16.00
2013,04,25,14,56,16.00
2013,04,25,14,57,16.10
2013,04,25,14,58,16.20
2013,04,25,14,59,16.20
2013,04,25,15,00,16.20
2013,04,25,15,01,16.10
2013,04,25,15,02,15.90
2013,04,25,15,03,15.90
2013,04,25,15,04,15.90
2013,04,25,15,05,16.10
2013,04,25,15,06,16.20
2013,04,25,15,07,16.30
2013,04,25,15,08,16.20
2013,04,25,15,09,16.10
2013,04,25,15,10,16.00
2013,04,25,15,11,15.90
2013,04,25,15,12,15.90
2013,04,25,15,13,16.00
2013,04,25,15,14,16.00
2013,04,25,15,15,15.80
2013,04,25,15,16,15.70
2013,04,25,15,17,15.70
2013,04,25,15,18,15.70
2013,04,25,15,19,15.70
2013,04,25,15,20,15.80
2013,04,25,15,21,15.90
2013,04,25,15,22,16.00
2013,04,25,15,23,16.00
2013,04,25,15,24,16.00
2013,04,25,15,25,15.90
2013,04,25,15,26,15.90
2013,04,25,15,27,15.70
2013,04,25,15,28,15.60
2013,04,25,15,29,15.60
2013,04,25,15,30,15.60
2013,04,25,15,31,15.60
2013,04,25,15,32,15.50
2013,04,25,15,33,15.50
2013,04,25,15,34,15.50
2013,04,25,15,35,15.50
2013,04,25,15,36,15.50
2013,04,25,15,37,15.60
2013,04,25,15,38,15.70
2013,04,25,15,39,15.70
2013,04,25,15,40,15.80
2013,04,25,15,41,15.80
2013,04,25,15,42,15.70
2013,04,25,15,43,15.80
2013,04,25,15,44,15.80
2013,04,25,15,45,15.80
2013,04,25,15,46,15.90
2013,04,25,15,47,16.00
2013,04,25,15,48,16.00
2013,04,25,15,49,16.00
2013,04,25,15,50,15.90
2013,04,25,15,51,15.90
2013,04,25,15,52,15.80
2013,04,25,15,53,15.70
2013,04,25,15,54,15.70
2013,04,25,15,55,15.70
2013,04,25,15,56,15.80
2013,04,25,15,57,15.80
2013,04,25,15,58,15.80
2013,04,25,15,59,15.80
2013,04,25,16,00,15.80
2013,04,25,16,01,15.80
2013,04,25,16,02,15.80
2013,04,25,16,03,15.80
2013,04,25,16,04,15.80
2013,04,25,16,05,15.80
2013,04,25,16,06,15.80
2013,04,25,16,07,15.70
2013,04,25,16,08,15.70
2013,04,25,16,09,15.70
2013,04,25,16,10,15.70
2013,04,25,16,11,15.60
2013,04,25,16,12,15.60
2013,04,25,16,13,15.60
2013,04,25,16,14,15.60
2013,04,25,16,15,15.70
2013,04,25,16,16,15.80
2013,04,25,16,17,15.80
2013,04,25,16,18,15.90
2013,04,25,16,19,15.90
2013,04,25,16,20,16.00
2013,04,25,16,21,16.10
2013,04,25,16,22,16.10
2013,04,25,16,23,16.00
2013,04,25,16,24,15.90
2013,04,25,16,25,15.90
2013,04,25,16,26,15.80
2013,04,25,16,27,15.70
2013,04,25,16,28,15.70
2013,04,25,16,29,15.70
2013,04,25,16,30,15.70
2013,04,25,16,31,15.70
2013,04,25,16,32,15.60
2013,04,25,16,33,15.60
2013,04,25,16,34,15.50
2013,04,25,16,35,15.60
2013,04,25,16,36,15.60
2013,04,25,16,37,15.60
2013,04,25,16,38,15.90
2013,04,25,16,39,16.00
2013,04,25,16,40,16.10
2013,04,25,16,41,16.10
2013,04,25,16,42,16.10
2013,04,25,16,43,16.20
2013,04,25,16,44,16.20
2013,04,25,16,45,16.20
2013,04,25,16,46,16.10
2013,04,25,16,47,16.10
2013,04,25,16,48,16.10
2013,04,25,16,49,16.10
2013,04,25,16,50,16.10
2013,04,25,16,51,16.20
2013,04,25,16,52,16.20
2013,04,25,16,53,16.20
2013,04,25,16,54,16.30
2013,04,25,16,55,16.30
2013,04,25,16,56,16.30
2013,04,25,16,57,16.20
2013,04,25,16,58,16.20
2013,04,25,16,59,16.20
2013,04,25,17,00,16.20
2013,04,25,17,01,16.20
2013,04,25,17,02,16.30
2013,04,25,17,03,16.20
2013,04,25,17,04,16.20
2013,04,25,17,05,16.10
2013,04,25,17,06,16.10
2013,04,25,17,07,16.00
2013,04,25,17,08,16.00
2013,04,25,17,09,16.00
2013,04,25,17,10,16.00
2013,04,25,17,11,16.00
2013,04,25,17,12,16.00
2013,04,25,17,13,16.00
2013,04,25,17,14,16.10
2013,04,25,17,15,16.10
2013,04,25,17,16,16.10
2013,04,25,17,17,16.10
2013,04,25,17,18,16.10
2013,04,25,17,19,16.10
2013,04,25,17,20,16.10
2013,04,25,17,21,16.10
2013,04,25,17,22,16.20
2013,04,25,17,23,16.20
2013,04,25,17,24,16.20
2013,04,25,17,25,16.20
2013,04,25,17,26,16.30
2013,04,25,17,27,16.30
2013,04,25,17,28,16.30
2013,04,25,17,29,16.30
2013,04,25,17,30,16.40
2013,04,25,17,31,16.50
2013,04,25,17,32,16.50
2013,04,25,17,33,16.50
2013,04,25,17,34,16.50
2013,04,25,17,35,16.50
2013,04,25,17,36,16.40